Regional Weather Roundup
Issued by NWS Newport/Morehead, NC

Current Version | Previous Version | Graphics & Text | Print | Product List | Glossary Off
Versions: 1 2 3 4 5 6 7 8 9 10 11 12 13 14 15 16 17 18 19 20 21 22 23 24 25 26 27 28 29 30 31 32 33 34 35 36 37 38 39 40 41 42 43 44 45 46 47 48 49 50

671
ASUS42 KMHX 032312
RWRMHX
WEATHER ROUNDUP FOR EASTERN NORTH CAROLINA
NATIONAL WEATHER SERVICE NEWPORT/MOREHEAD CITY NC
600 PM EST SAT DEC 03 2016

NOTE: "FAIR" INDICATES FEW OR NO CLOUDS BELOW 12,000 FEET
WITH NO SIGNIFICANT WEATHER AND/OR OBSTRUCTIONS TO VISIBILITY

NCZ015>017-031-032-045>047-102-103-040000-
NORTH COAST

CITY           SKY/WX    TMP DP  RH WIND       PRES   REMARKS
EDENTON        CLOUDY    46  37  71 CALM      30.24S
ELIZABETH CITY CLOUDY    44  31  60 W6        30.23R
KITTY HAWK     CLOUDY    47  34  60 NW3       30.21R
MANTEO         CLOUDY    48  33  55 N5        30.23R

$$

NCZ045>047-081-094-103-104-040000-
CENTRAL COAST

CITY           SKY/WX    TMP DP  RH WIND       PRES   REMARKS
FRISCO         CLOUDY    50  33  52 VRB5      30.20F

$$

NCZ095-097-098-100-101-040000-
SOUTHERN COAST

CITY           SKY/WX    TMP DP  RH WIND       PRES   REMARKS
BEAUFORT       CLOUDY    47  36  65 N5        30.22S
CEDAR ISLAND   NOT AVBL
JACKSONVILLE   CLOUDY    49  34  56 W3        30.24R
PINEY ISLAND   CLOUDY   N/A N/A N/A N5        30.21S
WILMINGTON     CLOUDY    48  34  58 NW3       30.25R


$$

NCZ011>013-027>030-043-044-078>080-089-090>093-098-040000-
COASTAL PLAIN

CITY           SKY/WX    TMP DP  RH WIND       PRES   REMARKS
AHOSKIE        CLOUDY    43  34  69 CALM      30.25R
CLINTON        CLOUDY    48  36  62 CALM      30.26R
ELIZABETHTOWN  PTCLDY    48  36  63 CALM      30.24S
GOLDSBORO      CLOUDY    48  32  54 CALM      30.22R
GREENVILLE     CLOUDY    45  34  65 CALM      30.24S
HAVELOCK       CLOUDY    50  33  52 N5        30.24R
KENANSVILLE    PTCLDY    46  36  66 CALM      30.24R
KINSTON        CLOUDY    45  37  76 CALM      30.24R
NEW BERN       CLOUDY    49  32  52 NW5       30.24R
RICHLANDS      CLOUDY    45  38  76 CALM      30.25R
ROCKY MOUNT    CLOUDY    45  36  70 CALM      30.24R
WASHINGTON     CLOUDY    46  32  57 NW3       30.24R
WHITEVILLE     PTCLDY    48  35  60 CALM      30.24R

$$

AMZ130-135-150-152-154-156-158-170-250-252-270-ANZ085-086-088-633-658-670-040000-
MARINE OBSERVATIONS

STATION/POSITION TIME  TEMP    WIND        PRES    WAVE   SWELL
                       AIR SEA DIR/SP/G            HT/PER HT/PER
                 (UTC) (F)     (DEG/KT/KT) (MB)    (FT/S) (FT/S)
CHESAPEAKE LIGHT NOT AVBL
64 E VA BEACH    2250   51 60  330/ 21/ 27 1021.8    6/ 6
DUCK             2248   50 56  330/ 10/ 12 1022.6
2 E DUCK         NOT AVBL
OREGON INLET     2242   48 55  320/  7/  9 1023.4
13E OREGON INLT  2300      61                N/A     5/ 7   5/ 7
HATTERAS CG      2248   51 58  340/ 15/ 17 1022.2
DIAMOND BUOY     2250   65 74   10/ 16/ 21 1022.5    5/ 8   3/ 8
CAPE LOOKOUT     2300   50     350/  4/  5 1023.1
BEAUFORT LAB     2248   51 56   10/  4/  5 1022.1
30 SE NEW RVR IN 2208   53 71   10/  8/ 14 1023.3
30 SE NEW RVR IN NOT AVBL
27 SE WRIGHTSVLE 2208   53 69   10/  8/ 14 1023.1
5 SE WRIGHTSVLE  2208   50 63  340/ 10/ 16 1022.8
225 S CAPE HAT   2250   63 73  350/ 12/ 16 1021.0    5/ 7   5/ 7
41 SE CHARLESTON 2250   56 75   20/ 12/ 16 1023.1    4/ 6   3/ 6

$$




USA.gov is the U.S. government's official web portal to all federal, state and local government web resources and services.